Location: Caltech
(34.1382°N, 118.1253°W)
Time: 14:38:29
(UTC-07:00)

RS-15 - Visible Passes

Search period start: 31 July 2014 00:00
Search period end: 10 August 2014 00:00
Orbit: 1900 x 2145 km, 64.8° (Epoch: 30 July)

Date Brightness Start Highest point End Pass type
(mag) Time Alt. Az. Time Alt. Az. Time Alt. Az.
31 Jul 9.2 00:59:40 10° WNW 01:07:15 21° WSW 01:07:29 21° WSW visible
31 Jul 8.0 22:09:04 10° NNW 22:20:06 65° ENE 22:24:57 39° SE visible
01 Aug 8.8 00:22:31 10° NW 00:31:39 31° WSW 00:32:41 30° WSW visible
01 Aug 8.3 21:33:11 10° NNW 21:43:53 51° NE 21:50:11 28° ESE visible
01 Aug 8.5 23:45:51 10° NW 23:55:58 42° WSW 23:57:56 40° SW visible
02 Aug 8.6 20:57:22 10° NNW 21:07:32 39° NE 21:15:28 18° ESE visible
02 Aug 8.2 23:09:28 10° NW 23:20:11 57° WSW 23:23:14 46° SSW visible
03 Aug 8.9 20:21:34 10° NNW 20:31:00 31° NE 20:40:39 10° ESE visible
03 Aug 8.0 22:33:16 10° NNW 22:44:19 75° WSW 22:48:33 46° S visible
04 Aug 9.6 00:50:40 10° WNW 00:54:51 13° W 00:56:19 12° WSW visible
04 Aug 7.9 21:57:11 10° NNW 22:08:21 86° ENE 22:13:56 38° SSE visible
05 Aug 9.3 00:12:04 10° WNW 00:19:21 20° WSW 00:21:41 19° WSW visible
05 Aug 8.0 21:21:13 10° NNW 21:32:17 68° ENE 21:39:21 28° SE visible
05 Aug 9.0 23:34:49 10° NW 23:43:46 29° WSW 23:47:07 25° SW visible
06 Aug 8.3 20:45:19 10° NNW 20:56:05 53° NE 21:04:49 18° SE visible
06 Aug 8.7 22:58:05 10° NW 23:08:05 40° WSW 23:12:35 30° SSW visible
07 Aug 8.5 20:09:29 10° NNW 20:19:45 41° NE 20:30:18 10° ESE visible
07 Aug 8.4 22:21:40 10° NW 22:32:19 54° WSW 22:38:06 31° S visible
08 Aug 8.1 21:45:26 10° NNW 21:56:28 72° WSW 22:03:41 27° S visible
09 Aug 9.8 00:03:32 10° W 00:06:56 12° W 00:10:22 10° WSW visible
09 Aug 8.0 21:09:21 10° NNW 21:20:31 89° ENE 21:29:20 21° SSE visible
09 Aug 9.6 23:24:29 10° WNW 23:31:27 19° W 23:37:07 13° SW visible
